Tracking 32938 objects as of 13-Jan-2026
HD Live streaming from Space Station
objects crossing your sky now

TITAN 4B DEB

Track TITAN 4B DEB now!
10-day predictions


NORAD ID: 40528
Int'l Code: 2000-047E
Perigee: 549.8 km
Apogee: 624.7 km
Inclination: 68.0 °
Period: 96.3 minutes
Semi major axis: 6958 km
RCS: Unknown
Launch date: August 17, 2000
Source: United States (US)
Launch site: AIR FORCE WESTERN TEST RANGE (AFWTR)

Note: This is SATELLITE DEBRIS
Your satellite tracking list
Your tracking list is empty




NASA's NSSDC Master Catalog

Two Line Element Set (TLE):
1 40528U 00047E   26012.75293031  .00000508  00000-0  55173-4 0  9999
2 40528  67.9947 286.3034 0053833 143.1117 249.9782 14.95741706589387
Source of the keplerian elements: AFSPC